FW2116 Weather Reports


time (UTC)temp
F
wind
direction
speed
knots
gust
knots
rain 1hr
in
rain 24hr
in
rain mn
in
humidity
%
barometer
mb
20260503213008 90 233 0.9 2.6 0.00 0.00 0.00 30 1008.6
20260503212510 90 117 0.0 2.6 0.00 0.00 0.00 32 1008.7
20260503212004 89 143 0.0 3.5 0.00 0.00 0.00 32 1008.9
20260503211505 89 134 0.9 3.5 0.00 0.00 0.00 32 1008.9
20260503211003 89 121 0.9 4.3 0.00 0.00 0.00 34 1008.9
20260503210503 88 82 0.0 4.3 0.00 0.00 0.00 34 1009.0
20260503210003 88 310 0.0 4.3 0.00 0.00 0.00 37 1009.0
20260503205504 89 319 1.7 4.3 0.00 0.00 0.00 34 1009.2
20260503205002 89 228 0.0 2.6 0.00 0.00 0.00 35 1009.2
20260503204600 89 324 0.9 3.5 0.00 0.00 0.00 34 1009.2
20260503204100 88 104 0.0 4.3 0.00 0.00 0.00 38 1009.2
20260503203558 87 258 0.0 4.3 0.00 0.00 0.00 37 1009.3
20260503203057 87 244 0.0 3.5 0.00 0.00 0.00 39 1009.4
20260503202556 87 21 0.9 3.5 0.00 0.00 0.00 40 1009.5
20260503202056 86 100 0.9 3.5 0.00 0.00 0.00 42 1009.6
20260503201553 86 253 0.9 3.5 0.00 0.00 0.00 40 1009.7
20260503201051 85 309 0.9 3.5 0.00 0.00 0.00 42 1009.7
20260503200551 85 35 0.9 7.0 0.00 0.00 0.00 45 1009.8
20260503200058 85 359 2.6 7.0 0.00 0.00 0.00 44 1009.8
20260503195548 85 313 0.9 6.1 0.00 0.00 0.00 47 1010.0
20260503195048 84 266 1.7 5.2 0.00 0.00 0.00 47 1010.1
20260503194546 83 313 0.9 5.2 0.00 0.00 0.00 46 1010.1
20260503194045 83 113 0.0 5.2 0.00 0.00 0.00 47 1010.2
20260503193545 82 291 1.7 5.2 0.00 0.00 0.00 45 1010.2
20260503193055 83 271 1.7 5.2 0.00 0.00 0.00 47 1010.2
20260503192541 82 311 0.9 5.2 0.00 0.00 0.00 48 1010.2
20260503192041 82 237 0.9 4.3 0.00 0.00 0.00 49 1010.3
20260503191544 82 238 0.9 5.2 0.00 0.00 0.00 48 1010.3
20260503191039 81 244 0.9 5.2 0.00 0.00 0.00 52 1010.3
20260503190538 80 249 1.7 5.2 0.00 0.00 0.00 51 1010.5
20260503190036 80 283 0.0 3.5 0.00 0.00 0.00 52 1010.5
20260503185535 79 247 0.0 5.2 0.00 0.00 0.00 54 1010.6
20260503185035 79 47 1.7 0.0 0.00 0.00 0.00 55 1010.6
20260503184541 78 295 0.9 3.5 0.00 0.00 0.00 55 1010.8
20260503184033 78 341 0.9 4.3 0.00 0.00 0.00 56 1010.9
20260503183532 78 335 0.9 4.3 0.00 0.00 0.00 56 1010.9
20260503183031 77 316 1.7 4.3 0.00 0.00 0.00 56 1010.9
20260503182531 77 310 0.9 2.6 0.00 0.00 0.00 58 1011.0
20260503182032 76 352 0.9 2.6 0.00 0.00 0.00 58 1011.0
20260503181527 75 348 0.0 3.5 0.00 0.00 0.00 60 1011.1
20260503181025 75 316 0.9 3.5 0.00 0.00 0.00 59 1011.2
20260503180524 74 16 0.9 2.6 0.00 0.00 0.00 62 1011.2
20260503180041 74 308 0.0 2.6 0.00 0.00 0.00 62 1011.4
20260503175521 74 304 0.9 2.6 0.00 0.00 0.00 63 1011.3
20260503175019 73 349 0.0 2.6 0.00 0.00 0.00 63 1011.3
20260503174524 73 232 0.0 2.6 0.00 0.00 0.00 64 1011.4
20260503174017 72 212 0.0 3.5 0.00 0.00 0.00 65 1011.4
20260503173516 72 285 1.7 3.5 0.00 0.00 0.00 65 1011.5
20260503173020 71 269 1.7 3.5 0.00 0.00 0.00 65 1011.5
20260503172513 71 219 0.0 2.6 0.00 0.00 0.00 66 1011.6
20260503172011 70 108 0.0 3.5 0.00 0.00 0.00 68 1011.6
20260503171511 69 357 0.0 3.5 0.00 0.00 0.00 68 1011.6
20260503171012 69 282 0.9 3.5 0.00 0.00 0.00 68 1011.8
20260503170509 69 272 0.9 2.6 0.00 0.00 0.00 68 1011.7
20260503150543 58 112 0.0 0.0 0.00 0.00 0.00 85 1012.3
20260503131036 50 120 0.0 0.9 0.00 0.00 0.00 92 1012.0
20260503130536 50 203 0.0 0.0 0.00 0.00 0.00 91 1011.9
20260503110523 53 61 0.0 0.9 0.00 0.00 0.00 91 1012.1
20260503090510 55 304 0.0 0.0 0.00 0.01 0.00 87 1012.4
20260503081512 57 304 0.0 0.0 0.00 0.01 0.00 85 1012.4
20260503081002 57 304 0.0 0.0 0.00 0.01 0.00 85 1012.3
20260503080501 57 304 0.0 0.0 0.00 0.01 0.00 84 1012.4
20260503080108 57 304 0.0 0.0 0.00 0.01 0.00 84 1012.4
20260503072556 59 304 0.0 0.0 0.00 0.01 0.00 82 1012.6
20260503072054 59 304 0.0 0.0 0.00 0.01 0.00 82 1012.6
20260503071600 59 304 0.0 0.0 0.00 0.01 0.00 81 1012.5
20260503071055 59 304 0.0 0.0 0.00 0.01 0.00 81 1012.5
20260503070551 60 304 0.0 0.0 0.00 0.01 0.00 81 1012.6
20260503055051 62 92 0.0 0.0 0.00 0.01 0.01 78 1012.1
20260503054548 62 92 0.0 0.9 0.00 0.01 0.01 77 1012.2
20260503054047 62 92 0.0 0.9 0.00 0.01 0.01 77 1012.3
20260503053547 62 101 0.0 0.9 0.00 0.01 0.01 77 1012.5
20260503053047 62 116 0.0 0.9 0.00 0.01 0.01 77 1012.5
20260503052546 62 116 0.0 0.0 0.00 0.01 0.01 77 1012.6
20260503052048 62 116 0.0 0.0 0.00 0.01 0.01 77 1012.6
20260503051547 63 116 0.0 0.0 0.00 0.01 0.01 76 1012.8
20260503051046 63 116 0.0 0.0 0.00 0.01 0.01 76 1012.7
20260503050548 63 116 0.0 0.0 0.00 0.01 0.01 76 1012.8
20260503050046 63 116 0.0 0.0 0.00 0.01 0.01 76 1012.8
20260503045545 63 116 0.0 0.0 0.00 0.01 0.01 76 1012.8
20260503045045 63 116 0.0 0.0 0.00 0.01 0.01 75 1012.8
20260503044547 63 116 0.0 0.0 0.00 0.01 0.01 75 1012.8
20260503044045 63 116 0.0 0.0 0.00 0.01 0.01 75 1012.7
20260503043546 63 116 0.0 0.0 0.00 0.01 0.01 75 1012.6
20260503043045 64 116 0.0 0.0 0.00 0.01 0.01 74 1012.7
20260503042545 64 116 0.0 0.0 0.00 0.01 0.01 74 1012.8
20260503042044 64 116 0.0 0.0 0.00 0.01 0.01 74 1012.7
20260503041544 64 116 0.0 0.0 0.00 0.01 0.01 74 1012.8
20260503041043 64 116 0.0 0.0 0.00 0.01 0.01 73 1012.7
20260503040543 64 116 0.0 0.0 0.00 0.01 0.01 73 1012.7
20260503040048 64 116 0.0 0.0 0.00 0.01 0.01 72 1012.7
20260503035544 65 116 0.0 0.9 0.00 0.01 0.01 72 1012.7
20260503035044 65 131 0.0 0.0 0.00 0.01 0.01 72 1012.6
20260503034543 65 131 0.0 0.0 0.00 0.01 0.01 71 1012.6
20260503034044 65 131 0.0 0.0 0.00 0.01 0.01 71 1012.6
20260503033543 65 131 0.0 3.5 0.00 0.01 0.01 71 1012.5
20260503033043 66 134 0.9 3.5 0.00 0.01 0.01 70 1012.5
20260503032543 66 141 0.0 4.3 0.00 0.01 0.01 70 1012.4
20260503032042 66 102 0.0 5.2 0.00 0.01 0.01 70 1012.4
20260503031543 66 139 0.9 5.2 0.00 0.01 0.01 69 1012.4
20260503031042 67 169 0.0 7.8 0.00 0.01 0.01 69 1012.5
20260503030543 67 236 0.9 7.8 0.00 0.01 0.01 68 1012.2
20260503030059 68 152 1.7 7.8 0.00 0.01 0.01 68 1012.2
20260503025543 69 152 0.9 7.8 0.00 0.01 0.01 66 1012.1
20260503025142 70 131 1.7 8.7 0.00 0.01 0.01 66 1012.0
20260503024542 71 152 1.7 8.7 0.00 0.01 0.01 64 1011.8
20260503024041 72 117 0.9 5.2 0.00 0.01 0.01 63 1011.8
20260503023540 72 131 0.9 7.8 0.00 0.01 0.01 62 1011.5
20260503023041 73 162 1.7 8.7 0.00 0.01 0.01 61 1011.6
20260503022540 73 212 3.5 8.7 0.00 0.01 0.01 61 1011.7
20260503022039 74 161 1.7 6.1 0.00 0.01 0.01 60 1011.5
20260503021541 74 212 2.6 6.1 0.00 0.01 0.01 60 1011.3
20260503021039 74 151 1.7 5.2 0.00 0.01 0.01 61 1011.2
20260503020539 73 154 1.7 4.3 0.00 0.01 0.01 61 1011.2
20260503020039 74 133 1.7 4.3 0.00 0.01 0.01 60 1011.0
20260503015539 74 134 1.7 6.1 0.00 0.01 0.01 60 1011.0
20260503015039 76 164 1.7 4.3 0.00 0.01 0.01 58 1011.0
20260503014547 76 116 0.0 0.9 0.00 0.01 0.01 58 1010.9
20260503014038 77 266 0.0 0.9 0.00 0.01 0.01 58 1010.9
20260503013538 76 266 0.0 0.9 0.00 0.01 0.01 58 1010.8
20260503013038 76 266 0.0 1.7 0.00 0.01 0.01 58 1010.8
20260503012538 76 284 0.0 1.7 0.00 0.01 0.01 57 1010.8
20260503012037 76 250 0.0 2.6 0.00 0.01 0.01 58 1010.9
20260503011547 76 259 0.9 2.6 0.00 0.01 0.01 58 1010.8
20260503011037 76 274 0.0 2.6 0.00 0.01 0.01 57 1010.8
20260503010536 77 275 0.0 2.6 0.00 0.01 0.01 57 1010.8
20260503010035 76 105 0.0 2.6 0.00 0.01 0.01 58 1010.9
20260503005538 76 106 0.0 2.6 0.00 0.01 0.01 58 1010.9
20260503005035 77 37 0.0 1.7 0.00 0.01 0.01 58 1010.9
20260503004533 76 229 0.0 1.7 0.00 0.01 0.01 58 1010.9
20260503004033 75 143 0.0 1.7 0.00 0.01 0.01 59 1011.0
20260503003532 75 113 0.9 4.3 0.00 0.01 0.01 59 1010.9
20260503003032 75 269 0.0 4.3 0.00 0.01 0.01 59 1010.9
20260503002534 75 246 0.9 4.3 0.00 0.01 0.01 59 1011.0
20260503002032 75 257 0.9 4.3 0.00 0.01 0.01 59 1011.0
20260503001530 75 296 0.0 5.2 0.00 0.01 0.01 59 1011.0
20260503001028 74 243 1.7 5.2 0.00 0.01 0.01 59 1011.0
20260503000527 74 217 1.7 5.2 0.00 0.01 0.01 60 1010.9
20260503000032 74 7 0.9 4.3 0.00 0.01 0.01 60 1011.1
20260502235526 74 275 0.9 3.5 0.00 0.01 0.01 60 1011.1
20260502235029 74 36 0.9 3.5 0.00 0.01 0.01 60 1011.2
20260502234525 74 245 0.9 3.5 0.00 0.01 0.01 60 1011.2
20260502234024 74 323 0.9 4.3 0.00 0.01 0.01 60 1011.2
20260502233523 74 76 0.9 4.3 0.00 0.01 0.01 61 1011.3
20260502233022 73 267 1.7 5.2 0.00 0.01 0.01 61 1011.2
20260502232521 73 305 0.0 3.5 0.00 0.01 0.01 62 1011.3
20260502232020 73 251 1.7 5.2 0.00 0.01 0.01 61 1011.3
20260502231519 73 290 2.6 5.2 0.00 0.01 0.01 60 1011.5
20260502231018 73 58 0.0 3.5 0.00 0.01 0.01 61 1011.6
20260502230517 73 319 0.0 2.6 0.00 0.01 0.01 61 1011.7
20260502230016 73 354 0.9 2.6 0.00 0.01 0.01 60 1011.8
20260502225517 72 102 0.0 5.2 0.00 0.01 0.01 62 1011.8
20260502225014 72 246 0.9 5.2 0.00 0.01 0.01 61 1012.0
20260502224514 72 285 0.9 4.3 0.00 0.01 0.01 61 1012.1
20260502224012 71 321 0.9 5.2 0.00 0.01 0.01 62 1012.2
20260502223511 71 115 0.0 5.2 0.00 0.01 0.01 63 1012.1
20260502223013 71 287 0.0 3.5 0.00 0.01 0.01 63 1012.2
20260502222510 71 289 0.0 4.3 0.00 0.01 0.01 62 1012.3
20260502222007 71 96 0.0 4.3 0.00 0.01 0.01 63 1012.5
20260502221506 71 122 0.0 7.8 0.00 0.01 0.01 63 1012.5
20260502221005 70 256 2.6 7.8 0.00 0.01 0.01 64 1012.6
20260502220504 69 176 0.0 5.2 0.00 0.01 0.01 65 1012.7
20260502220005 69 309 1.7 5.2 0.00 0.01 0.01 64 1012.8
20260502215506 69 275 0.0 6.1 0.00 0.01 0.01 64 1012.9
20260502215002 69 299 1.7 6.1 0.00 0.01 0.01 65 1012.9
20260502214501 69 271 1.7 5.2 0.00 0.01 0.01 65 1013.0
20260502214100 69 276 1.7 3.5 0.00 0.01 0.01 65 1013.0
20260502213558 68 159 0.9 3.5 0.00 0.01 0.01 66 1013.0